< < Back
Terminal Aerodrome Forecast


Current Version              Previous Versions:   1  2  3  4  5  6  7  8  9  

Terminal Aerodrome Forecast

479
FTUS44 KBMX 010500
TAFBHM
TAF
KBHM 010528Z 0106/0206 VRB04KT P6SM SCT250
     FM011500 20007KT P6SM BKN050
     FM020100 VRB04KT P6SM SCT250=



Latest METAR

428
SAUS70 KWBC 011100 RRJ
MTRBHM
METAR KBHM 011053Z 15003KT 10SM BKN150 24/21 A3012 RMK AO2 SLP190
T02390211 $


USA.gov is the U.S. government's official web portal to all federal, state and local government web resources and services.